World > North America > United States > New Jersey

Middleville, New Jersey Regional Weather

Lat: 41.06N, Lon: 74.86W
Wx Zone: NJZ001
Feedback

Middleville, NJ Regional Weather

Expires:201909192000;;036690
ASUS41 KOKX 191914
RWROKX

Regional Weather Roundup
National Weather Service New York NY
300 PM EDT THU SEP 19 2019

Note: "FAIR" indicates few or no clouds below 12,000 feet with no
significant weather and/or obstructions to visibility.


NJZ001-105-106-008-010-013-015-019>022-104-192000-
New Jersey
  
CITY           SKY/WX    TMP DP  RH WIND       PRES   REMARKS
Newark/Liberty FAIR      69  38  32 SE6       30.31F                  
Teterboro      FAIR      70  37  29 VRB6      30.30F                  
Caldwell       FAIR      71  33  24 E6        30.32F                  
Somerville     FAIR      71  39  31 CALM      30.30F                  
Linden         FAIR      70  37  29 CALM      30.31F                  
Perth Amboy      N/A     64 N/A N/A SE6         N/A                   
Sussex         FAIR      71  37  28 VRB3      30.31F                  
Andover          N/A     69  39  33 CALM      30.32F                  
Trenton        FAIR      69  42  37 CALM      30.31F                  
Millville      FAIR      70  43  37 N5        30.31F                  
Atlantic City  FAIR      69  48  47 NE8       30.31F                  
Wrightstown    FAIR      71  43  36 NE3       30.31                   
Toms River     FAIR      68  50  52 E8        30.33S                  
Belmar         FAIR      64  45  49 E7        30.34S                  
$$
 

SKY/WX - Weather  TMP - Temperature  DP - Dew Point  RH - Relative Humidity
WIND - Wind Direction/Speed PRES - Barometric Pressure VSB - Visibility
WCI - Wind Chill Index E13G22 Wind - East Wind 13 mph/Gusts of 22 mph